This is the latest recevied weather packets stored in our database for station/object WX6HNX-6. If no packets are shown the sender has not sent any weather packets the latest 1 day(s).
| Time | Temp. | Humidity | Pressure | Rain* | Wind** | Luminosity | Snow |
|---|---|---|---|---|---|---|---|
| 1778029273 | 20° C | 50% | 1014.6 hPa | 0 mm | 2.24 m/s, 11° | - | - |
| 1778028973 | 20° C | 51% | 1014.5 hPa | 0 mm | 2.24 m/s, 20° | - | - |
| 1778028673 | 20° C | 51% | 1014.5 hPa | 0 mm | 1.34 m/s, 27° | - | - |
| 1778028373 | 20.56° C | 51% | 1014.5 hPa | 0 mm | 1.34 m/s, 31° | - | - |
| 1778028073 | 20.56° C | 51% | 1014.5 hPa | 0 mm | 1.79 m/s, 37° | - | - |
| 1778027774 | 20.56° C | 50% | 1014.5 hPa | 0 mm | 0.89 m/s, 35° | - | - |
| 1778027408 | 21.11° C | 49% | 1014.5 hPa | 0 mm | 2.24 m/s, 4° | - | - |
| 1778027108 | 20.56° C | 49% | 1014.5 hPa | 0 mm | 1.34 m/s, 342° | - | - |
| 1778026808 | 20.56° C | 50% | 1014.5 hPa | 0 mm | 1.34 m/s, 345° | - | - |
| 1778026508 | 20.56° C | 51% | 1014.5 hPa | 0 mm | 0.45 m/s, 48° | - | - |
| 1778026134 | 20.56° C | 50% | 1014.6 hPa | 0 mm | 1.34 m/s, 20° | - | - |
| 1778025829 | 20.56° C | 50% | 1014.5 hPa | 0 mm | 1.34 m/s, 24° | - | - |
| 1778025528 | 21.11° C | 49% | 1014.4 hPa | 0 mm | 1.34 m/s, 32° | - | - |
| 1778025228 | 21.11° C | 49% | 1014.4 hPa | 0 mm | 2.68 m/s, 335° | - | - |
| 1778024929 | 20.56° C | 49% | 1014.4 hPa | 0 mm | 1.34 m/s, 36° | - | - |
| 1778024628 | 20.56° C | 50% | 1014.5 hPa | 0 mm | 1.79 m/s, 345° | - | - |
| 1778024328 | 20.56° C | 49% | 1014.4 hPa | 0 mm | 1.79 m/s, 353° | - | - |
| 1778024030 | 20.56° C | 48% | 1014.5 hPa | 0 mm | 1.34 m/s, 337° | - | - |
| 1778023729 | 20.56° C | 49% | 1014.5 hPa | 0 mm | 0.89 m/s, 24° | - | - |
| 1778023429 | 21.11° C | 48% | 1014.5 hPa | 0 mm | 1.34 m/s, 22° | - | - |
| 1778023129 | 20.56° C | 48% | 1014.5 hPa | 0 mm | 1.34 m/s, 345° | - | - |
| 1778022648 | 21.11° C | 48% | 1014.6 hPa | 0 mm | 0.89 m/s, 22° | - | - |
| 1778022348 | 21.11° C | 47% | 1014.6 hPa | 0 mm | 1.34 m/s, 360° | - | - |
| 1778022048 | 21.11° C | 47% | 1014.6 hPa | 0 mm | 2.24 m/s, 308° | - | - |
| 1778021748 | 21.11° C | 48% | 1014.6 hPa | 0 mm | 0.45 m/s, 341° | - | - |
* Rain latest hour (hover to see other rain measurements)
** Current wind speed in m/s (hover to see current wind gust speed)